Find Starlink 2648

NORAD ID: 48679 Int'l Des: 2021-044 Owner: SPXS Country: US Constellation: starlink operational
LEOCIRCULARSTARLINK_TYPE

实时位置

正在加载3D地球...

关于 Starlink 2648

正在加载描述...

即将过境

Passes for default location (London). Set your location on the main map for personalized predictions.

高度历史

Loading altitude history...

两行轨道根数

1 48679U 21044AT 26118.71326712 .00006309 00000-0 23079-3 0 9994
2 48679 53.1556 241.4215 0001269 101.2960 258.8183 15.29352318271472
Epoch: Apr 28, 2026 • Age: 13 hours

当前状态

高度 482.5 km
速度 7.63 km/s
星下点 48.69°N, 9.8°W
发射日期 May 26, 2021
运行时间 4.9 years
类型 internet

技术详情

分类 Payload
质量 260.00 kg
干质量 248.00 kg
总质量 260.00 kg
长度 0.20 m
直径 2.80 m
跨度 9.00 m
形状 Box + pan
制造商 SPXS
平台类型 Starlink
阶段状态 In Orbit
所有者/国家 SPXS/US

Most Searched